1485442801.0,23458,9.75,73902.3,-7.79,-36.67,-37.03,0,*52
1485442802.21,23459,9.75,73898.8,-7.79,-36.55,-37.03,0,*52
1485442803.45,23460,9.75,73898.3,-7.81,-36.55,-37.03,0,*5F
1485442804.66,23461,9.75,73896.5,-7.79,-36.55,-37.03,0,*59
1485442805.89,23462,9.75,73900.3,-7.77,-36.43,-36.85,0,*5C
1485442807.13,23463,9.75,73900.5,-7.79,-36.37,-36.73,0,*59
1485442808.39,23464,9.75,73898.3,-7.81,-36.37,-36.73,0,*59
1485442809.66,23465,9.75,73898.0,-7.81,-36.37,-36.73,0,*58
1485442810.89,23466,9.75,73898.3,-7.79,-36.37,-36.85,0,*55
1485442812.09,23467,9.75,73898.3,-7.79,-36.31,-36.85,0,*52
1485442813.33,23468,9.75,73892.8,-7.79,-36.37,-36.73,0,*52
1485442814.56,23469,9.75,73892.3,-7.79,-36.37,-36.85,0,*5A
1485442815.77,23470,9.75,73890.3,-7.79,-36.55,-37.03,0,*59
1485442816.98,23471,9.75,73894.8,-7.79,-36.67,-37.03,0,*59
1485442818.22,23472,9.75,73894.3,-7.79,-36.55,-37.09,0,*51
1485442819.43,23473,9.75,73890.8,-7.79,-36.55,-37.03,0,*5A
1485442820.67,23474,9.75,73888.3,-7.79,-36.55,-36.91,0,*57
1485442821.93,23475,9.75,73894.0,-7.79,-36.49,-36.91,0,*5B
1485442823.19,23476,9.75,73894.8,-7.77,-36.25,-36.67,0,*55
1485442824.43,23477,9.75,73888.8,-7.79,-36.37,-36.73,0,*5C
1485442825.67,23478,9.75,73892.5,-7.79,-36.37,-36.73,0,*53
1485442826.9,23479,9.75,73894.3,-7.79,-36.49,-36.73,0,*5B
1485442828.16,23480,9.75,73892.5,-7.79,-36.37,-36.91,0,*58
1485442829.38,23481,9.75,73892.8,-7.79,-36.31,-36.73,0,*53
1485442830.59,23482,9.75,73896.5,-7.79,-36.31,-36.73,0,*50
1485442831.8,23483,9.75,73896.8,-7.79,-36.19,-36.67,0,*5E
1485442833.09,23484,9.75,73896.8,-7.77,-36.25,-36.49,0,*54
1485442834.37,23485,9.75,73898.5,-7.77,-36.13,-36.61,0,*5A
1485442835.58,23486,9.75,73898.3,-7.79,-36.19,-36.55,0,*5A
1485442836.79,23487,9.75,73900.8,-7.79,-36.19,-36.67,0,*5A
1485442838.07,23488,9.75,73896.5,-7.77,-36.13,-36.49,0,*5D
1485442839.35,23489,9.75,73900.0,-7.77,-36.13,-36.61,0,*56
1485442840.57,23490,9.75,73900.0,-7.79,-36.31,-36.67,0,*56
1485442841.81,23491,9.75,73896.8,-7.79,-36.37,-36.55,0,*50
1485442843.09,23492,9.75,73900.0,-7.77,-36.13,-36.61,0,*5C
1485442844.36,23493,9.75,73898.0,-7.77,-36.13,-36.61,0,*5D
1485442845.62,23494,9.75,73902.3,-7.77,-35.89,-36.49,0,*50
1485442846.88,23495,9.75,73894.5,-7.77,-36.07,-36.61,0,*5E
1485442848.14,23496,9.75,73888.8,-7.77,-36.07,-36.49,0,*57
1485442849.42,23497,9.75,73888.3,-7.77,-36.13,-36.61,0,*59
1485442850.68,23498,9.75,73886.8,-7.77,-36.07,-36.49,0,*59
1485442851.93,23499,9.75,73884.8,-7.77,-36.07,-36.49,0,*58
1485442853.22,23500,9.75,73894.0,-7.77,-35.95,-36.49,0,*51
1485442854.5,23501,9.75,73894.3,-7.77,-36.13,-36.49,0,*5D
1485442855.76,23502,9.75,73894.8,-7.77,-36.25,-36.67,0,*57
1485442857.0,23503,9.75,73892.8,-7.77,-36.31,-36.67,0,*53
1485442858.26,23504,9.75,73888.0,-7.77,-36.31,-36.79,0,*5B
1485442859.5,23505,9.75,73888.8,-7.75,-36.25,-36.67,0,*52
1485442860.74,23506,9.75,73890.0,-7.75,-36.31,-36.79,0,*5B
1485442862.0,23507,9.75,73884.0,-7.75,-36.25,-36.79,0,*5F
1485442863.25,23508,9.75,73884.5,-7.77,-36.49,-36.85,0,*5B
1485442864.51,23509,9.75,73888.8,-7.77,-36.49,-36.85,0,*5A
1485442865.74,23510,9.75,73886.3,-7.77,-36.43,-36.85,0,*58
1485442866.94,23511,9.75,73888.5,-7.75,-36.43,-36.85,0,*5B
1485442868.18,23512,9.75,73890.3,-7.75,-36.31,-36.79,0,*5E
1485442869.41,23513,9.75,73888.8,-7.79,-36.37,-36.73,0,*5F
1485442870.65,23514,9.75,73892.8,-7.77,-36.31,-36.67,0,*55
1485442871.89,23515,9.75,73896.3,-7.77,-36.31,-36.67,0,*54
1485442873.13,23516,9.75,73894.0,-7.77,-36.31,-36.67,0,*57
1485442874.37,23517,9.75,73888.0,-7.77,-36.31,-36.67,0,*56
1485442875.63,23518,9.75,73888.0,-7.77,-36.43,-36.79,0,*53
1485442876.86,23519,9.75,73894.5,-7.77,-36.43,-36.85,0,*51
1485442878.09,23520,9.75,73890.8,-7.77,-36.31,-36.85,0,*5E
1485442879.34,23521,9.75,73888.3,-7.77,-36.31,-36.79,0,*5C
1485442880.63,23522,9.75,73888.5,-7.77,-36.25,-36.79,0,*5A
1485442881.88,23523,9.75,73892.8,-7.77,-36.31,-36.79,0,*5E
1485442883.14,23524,9.75,73890.3,-7.77,-36.31,-36.79,0,*59
1485442884.37,23525,9.75,73888.5,-7.79,-36.49,-36.85,0,*5A
1485442885.63,23526,9.75,73892.5,-7.77,-36.43,-36.79,0,*5E
1485442886.91,23527,9.75,73894.8,-7.77,-36.25,-36.79,0,*5F
1485442888.18,23528,9.75,73890.8,-7.77,-36.25,-36.67,0,*5F
1485442889.46,23529,9.75,73888.8,-7.77,-36.25,-36.79,0,*51
1485442890.74,23530,9.75,73892.3,-7.77,-36.25,-36.79,0,*59
1485442892.01,23531,9.75,73888.3,-7.77,-36.25,-36.67,0,*57
1485442893.27,23532,9.75,73890.3,-7.77,-36.25,-36.67,0,*54
1485442894.56,23533,9.75,73898.0,-7.77,-36.25,-36.49,0,*59
1485442895.81,23534,9.75,73896.8,-7.75,-36.13,-36.49,0,*59
1485442897.07,23535,9.75,73894.8,-7.75,-36.13,-36.61,0,*52
1485442898.33,23536,9.75,73888.0,-7.75,-36.25,-36.61,0,*54
1485442899.59,23537,9.75,73890.5,-7.75,-36.13,-36.49,0,*5A
1485442900.87,23538,9.75,73892.3,-7.77,-36.25,-36.49,0,*52
1485442902.15,23539,9.75,73892.3,-7.77,-36.13,-36.49,0,*56
1485442903.39,23540,9.75,73892.0,-7.75,-36.07,-36.49,0,*5F
1485442904.64,23541,9.75,73894.3,-7.75,-36.13,-36.61,0,*51
1485442905.91,23542,9.75,73890.3,-7.75,-36.25,-36.61,0,*57
1485442907.14,23543,9.75,73894.3,-7.73,-36.01,-36.43,0,*56
1485442908.35,23544,9.75,73890.5,-7.75,-35.89,-36.31,0,*51
1485442909.61,23545,9.75,73890.3,-7.73,-35.89,-36.37,0,*50
1485442910.85,23546,9.75,73894.3,-7.73,-36.01,-36.43,0,*53
1485442912.06,23547,9.75,73888.8,-7.75,-35.89,-36.31,0,*52
1485442913.27,23548,9.75,73888.5,-7.75,-35.89,-36.31,0,*5D
1485442914.53,23549,9.75,73888.8,-7.73,-35.83,-36.19,0,*5A
1485442915.76,23550,9.75,73888.8,-7.73,-35.77,-36.07,0,*56
1485442917.0,23551,9.75,73890.3,-7.73,-35.77,-36.07,0,*57
1485442918.26,23552,9.75,73892.3,-7.73,-35.83,-36.19,0,*50
1485442919.55,23553,9.75,73890.8,-7.73,-35.83,-36.25,0,*5E
1485442920.8,23554,9.75,73896.8,-7.73,-35.89,-36.37,0,*50
1485442922.03,23555,9.75,73894.0,-7.71,-35.89,-36.37,0,*53
1485442923.31,23556,9.75,73894.5,-7.69,-35.83,-36.37,0,*53
1485442924.52,23557,9.75,73892.8,-7.71,-35.89,-36.43,0,*52
1485442925.78,23558,9.75,73894.8,-7.69,-35.83,-36.31,0,*5B
1485442927.01,23559,9.75,73892.5,-7.71,-35.89,-36.37,0,*5F
1485442928.27,23560,9.75,73898.8,-7.69,-35.83,-36.31,0,*50
1485442929.48,23561,9.75,73892.3,-7.71,-36.07,-36.43,0,*52
1485442930.69,23562,9.75,73898.0,-7.71,-36.07,-36.43,0,*51
1485442931.97,23563,9.75,73898.5,-7.69,-35.95,-36.37,0,*52
1485442933.23,23564,9.75,73894.0,-7.69,-35.95,-36.43,0,*56
1485442934.49,23565,9.75,73896.3,-7.69,-36.01,-36.37,0,*5A
1485442935.7,23566,9.75,73894.5,-7.71,-36.07,-36.43,0,*55
1485442936.97,23567,9.75,73898.8,-7.69,-36.13,-36.37,0,*5B
1485442938.23,23568,9.75,73896.0,-7.71,-36.37,-36.61,0,*58
1485442939.46,23569,9.75,73898.5,-7.71,-36.19,-36.61,0,*55
1485442940.71,23570,9.75,73894.3,-7.69,-36.01,-36.49,0,*57
1485442941.99,23571,9.75,73894.3,-7.69,-36.13,-36.37,0,*5C
1485442943.24,23572,9.75,73896.8,-7.71,-36.13,-36.49,0,*5F
1485442944.46,23573,9.75,73896.3,-7.71,-36.01,-36.55,0,*50
1485442945.67,23574,9.75,73894.5,-7.71,-36.07,-36.55,0,*51
1485442946.93,23575,9.75,73894.3,-7.69,-36.01,-36.49,0,*52
1485442948.17,23576,9.75,73892.5,-7.71,-35.95,-36.55,0,*5B
1485442949.38,23577,9.75,73898.8,-7.71,-36.07,-36.55,0,*52
1485442950.59,23578,9.75,73892.3,-7.71,-36.07,-36.43,0,*5A
1485442951.85,23579,9.75,73892.3,-7.69,-36.01,-36.49,0,*5E
1485442953.06,23580,9.75,73896.0,-7.71,-36.07,-36.43,0,*5D
1485442954.29,23581,9.75,73894.0,-7.71,-36.07,-36.37,0,*5F
1485442955.51,23582,9.75,73896.0,-7.71,-36.01,-36.55,0,*5E
1485442956.78,23583,9.75,73896.5,-7.69,-36.13,-36.37,0,*51
1485442958.03,23584,9.75,73894.3,-7.69,-36.01,-36.37,0,*55
1485442959.25,23585,9.75,73898.0,-7.71,-36.07,-36.55,0,*5F
1485442960.53,23586,9.75,73896.3,-7.69,-35.95,-36.37,0,*59
1485442961.79,23587,9.75,73896.8,-7.69,-36.01,-36.37,0,*56
1485442963.04,23588,9.75,73898.0,-7.69,-36.01,-36.37,0,*59
1485442964.32,23589,9.75,73900.5,-7.69,-36.13,-36.49,0,*52
1485442965.53,23590,9.75,73898.8,-7.71,-36.19,-36.55,0,*54
1485442966.81,23591,9.75,73896.0,-7.69,-36.13,-36.49,0,*5B
1485442968.09,23592,9.75,73892.3,-7.69,-36.13,-36.49,0,*58
1485442969.36,23593,9.75,73896.8,-7.69,-36.13,-36.37,0,*50
1485442970.62,23594,9.75,73900.3,-7.69,-36.19,-36.49,0,*54
1485442971.85,23595,9.75,73900.5,-7.71,-36.37,-36.73,0,*59
1485442973.09,23596,9.75,73896.3,-7.69,-36.31,-36.55,0,*51
1485442974.35,23597,9.75,73902.8,-7.71,-36.25,-36.61,0,*5B
1485442975.59,23598,9.75,73896.5,-7.71,-36.37,-36.43,0,*57
1485442976.84,23599,9.75,73898.5,-7.69,-36.19,-36.61,0,*53
1485442978.1,23600,9.75,73896.8,-7.71,-36.25,-36.61,0,*56
1485442979.34,23601,9.75,73896.5,-7.69,-36.19,-36.55,0,*56
1485442980.58,23602,9.75,73898.5,-7.69,-36.19,-36.67,0,*54
1485442981.81,23603,9.75,73896.3,-7.69,-36.19,-36.55,0,*54
1485442983.05,23604,9.75,73896.8,-7.69,-36.19,-36.55,0,*53
1485442984.31,23605,9.75,73894.0,-7.69,-36.19,-36.49,0,*5F
1485442985.56,23606,9.75,73898.0,-7.71,-36.37,-36.61,0,*53
1485442986.82,23607,9.75,73892.5,-7.69,-36.19,-36.37,0,*54
1485442988.06,23608,9.75,73894.3,-7.71,-36.25,-36.55,0,*59
1485442989.3,23609,9.75,73898.5,-7.71,-36.25,-36.55,0,*58
1485442990.54,23610,9.75,73892.0,-7.69,-36.31,-36.67,0,*5D
1485442991.8,23611,9.75,73894.3,-7.71,-36.37,-36.61,0,*55
1485442993.01,23612,9.75,73898.8,-7.71,-36.43,-36.73,0,*56
1485442994.26,23613,9.75,73894.5,-7.71,-36.37,-36.61,0,*57
1485442995.5,23614,9.75,73894.8,-7.71,-36.37,-36.73,0,*53
1485442996.74,23615,9.75,73894.3,-7.71,-36.25,-36.55,0,*55
1485442997.98,23616,9.75,73894.3,-7.71,-36.25,-36.55,0,*56
1485442999.24,23617,9.75,73898.0,-7.71,-36.25,-36.61,0,*50
1485443000.45,23618,9.75,73898.0,-7.71,-36.19,-36.43,0,*50
1485443001.69,23619,9.75,73894.8,-7.71,-36.25,-36.55,0,*59
1485443002.93,23620,9.75,73896.3,-7.71,-36.25,-36.55,0,*53
1485443004.14,23621,9.75,73892.3,-7.71,-36.19,-36.55,0,*5D
1485443005.42,23622,9.75,73898.3,-7.69,-36.13,-36.49,0,*50
1485443006.7,23623,9.75,73892.5,-7.69,-36.13,-36.37,0,*58
1485443007.91,23624,9.75,73898.0,-7.71,-36.19,-36.55,0,*58
1485443009.15,23625,9.75,73896.3,-7.71,-36.25,-36.55,0,*56
1485443010.36,23626,9.75,73896.3,-7.71,-36.19,-36.55,0,*5A
1485443011.61,23627,9.75,73898.3,-7.71,-36.25,-36.55,0,*54
1485443012.85,23628,9.75,73898.0,-7.71,-36.25,-36.55,0,*5B
1485443014.06,23629,9.75,73894.8,-7.71,-36.19,-36.55,0,*55
1485443015.32,23630,9.75,73896.0,-7.69,-36.19,-36.49,0,*59
1485443016.6,23631,9.75,73894.0,-7.69,-36.13,-36.49,0,*52
1485443017.8,23632,9.75,73894.8,-7.71,-36.19,-36.43,0,*58
1485443019.04,23633,9.75,73896.3,-7.71,-36.25,-36.55,0,*51
1485443020.26,23634,9.75,73896.0,-7.71,-36.19,-36.55,0,*59
1485443021.51,23635,9.75,73892.8,-7.69,-36.19,-36.49,0,*5C
1485443022.77,23636,9.75,73892.5,-7.69,-36.01,-36.37,0,*5F
1485443024.02,23637,9.75,73896.0,-7.69,-36.19,-36.49,0,*5E
1485443025.23,23638,9.75,73896.5,-7.71,-36.19,-36.43,0,*52
1485443026.48,23639,9.75,73896.0,-7.69,-36.19,-36.49,0,*50
1485443027.72,23640,9.75,73898.8,-7.71,-36.25,-36.43,0,*52
1485443028.93,23641,9.75,73900.5,-7.71,-36.19,-36.55,0,*5B
1485443030.14,23642,9.75,73894.8,-7.71,-36.19,-36.43,0,*5F
1485443031.4,23643,9.75,73894.0,-7.69,-36.01,-36.49,0,*54
1485443032.65,23644,9.75,73896.3,-7.69,-36.01,-36.37,0,*5A
1485443033.91,23645,9.75,73896.8,-7.69,-36.01,-36.37,0,*5B
1485443035.11,23646,9.75,73898.0,-7.71,-36.01,-36.43,0,*52
1485443036.32,23647,9.75,73894.0,-7.71,-36.19,-36.43,0,*5A
1485443037.53,23648,9.75,73894.0,-7.71,-36.07,-36.55,0,*5D
1485443038.78,23649,9.75,73896.3,-7.71,-36.25,-36.55,0,*5C
1485443040.03,23650,9.75,73896.3,-7.69,-36.01,-36.37,0,*5F
1485443041.31,23651,9.75,73898.3,-7.69,-35.95,-36.37,0,*50
1485443042.52,23652,9.75,73898.3,-7.71,-36.19,-36.43,0,*5E
1485443043.78,23653,9.75,73898.3,-7.69,-36.19,-36.49,0,*5C
1485443045.02,23654,9.75,73898.8,-7.71,-36.25,-36.55,0,*50
1485443046.25,23655,9.75,73898.0,-7.73,-36.19,-36.43,0,*5B
1485443047.46,23656,9.75,73894.5,-7.71,-36.07,-36.43,0,*55
1485443048.67,23657,9.75,73898.0,-7.71,-36.19,-36.43,0,*5B
1485443049.87,23658,9.75,73898.5,-7.71,-36.19,-36.43,0,*54
1485443051.08,23659,9.75,73900.8,-7.71,-36.07,-36.43,0,*5A
1485443052.3,23660,9.75,73900.3,-7.71,-36.19,-36.55,0,*58
1485443053.58,23661,9.75,73898.0,-7.69,-35.95,-36.37,0,*53
1485443054.86,23662,9.75,73898.3,-7.69,-35.95,-36.37,0,*50
1485443056.09,23663,9.75,73898.8,-7.71,-36.07,-36.37,0,*50
1485443057.3,23664,9.75,73898.0,-7.71,-36.19,-36.43,0,*5B
1485443058.55,23665,9.75,73898.8,-7.69,-36.01,-36.37,0,*59
1485443059.8,23666,9.75,73896.3,-7.69,-36.01,-36.37,0,*5A
1485443061.04,23667,9.75,73898.5,-7.69,-36.01,-36.31,0,*5D
1485443062.28,23668,9.75,73898.8,-7.71,-36.07,-36.25,0,*58
1485443063.51,23669,9.75,73896.8,-7.71,-36.01,-36.37,0,*5C
1485443064.71,23670,9.75,73896.0,-7.71,-36.19,-36.43,0,*5E
1485443065.92,23671,9.75,73896.5,-7.71,-36.01,-36.31,0,*53
1485443067.18,23672,9.75,73898.0,-7.69,-35.95,-36.31,0,*57
1485443068.41,23673,9.75,73898.8,-7.71,-36.07,-36.37,0,*51
1485443069.65,23674,9.75,73898.5,-7.69,-36.01,-36.31,0,*5F
1485443070.88,23675,9.75,73898.5,-7.69,-36.01,-36.31,0,*5E
1485443072.11,23676,9.75,73896.3,-7.71,-36.07,-36.37,0,*54
1485443073.34,23677,9.75,73894.3,-7.69,-36.01,-36.19,0,*56
1485443074.57,23678,9.75,73900.3,-7.71,-36.07,-36.37,0,*5A
1485443075.81,23679,9.75,73892.8,-7.69,-36.01,-36.31,0,*52
1485443077.04,23680,9.75,73896.0,-7.69,-36.01,-36.31,0,*54
1485443078.25,23681,9.75,73896.5,-7.71,-36.19,-36.43,0,*50
1485443079.46,23682,9.75,73894.3,-7.71,-36.07,-36.43,0,*5C
1485443080.71,23683,9.75,73896.0,-7.69,-36.01,-36.37,0,*51
1485443081.97,23684,9.75,73896.8,-7.69,-35.95,-36.19,0,*54
1485443083.23,23685,9.75,73898.8,-7.69,-35.95,-36.19,0,*55
1485443084.46,23686,9.75,73896.3,-7.69,-36.01,-36.31,0,*52
1485443085.7,23687,9.75,73896.0,-7.71,-36.01,-36.25,0,*5F
1485443086.93,23688,9.75,73894.0,-7.69,-36.01,-36.19,0,*56
1485443088.16,23689,9.75,73898.3,-7.71,-36.07,-36.37,0,*54
1485443089.39,23690,9.75,73892.8,-7.69,-36.01,-36.31,0,*55
1485443090.62,23691,9.75,73894.3,-7.69,-36.01,-36.19,0,*5E
1485443091.86,23692,9.75,73896.5,-7.71,-36.07,-36.25,0,*5D
1485443093.14,23693,9.75,73894.8,-7.69,-35.95,-36.37,0,*5E
1485443094.37,23694,9.75,73896.8,-7.71,-36.19,-36.37,0,*57
1485443095.63,23695,9.75,73894.0,-7.69,-36.13,-36.31,0,*53
1485443096.88,23696,9.75,73894.8,-7.69,-36.13,-36.31,0,*50
1485443098.14,23697,9.75,73894.5,-7.69,-36.13,-36.31,0,*51
1485443099.4,23698,9.75,73896.8,-7.69,-35.95,-36.31,0,*53
1485443100.63,23699,9.75,73894.5,-7.71,-36.01,-36.37,0,*53
1485443101.88,23700,9.75,73894.5,-7.69,-36.13,-36.31,0,*5E
1485443103.14,23701,9.75,73890.8,-7.69,-35.95,-36.19,0,*58
1485443104.4,23702,9.75,73892.0,-7.69,-35.95,-36.31,0,*51
1485443105.66,23703,9.75,73892.8,-7.69,-35.95,-36.31,0,*50
1485443106.89,23704,9.75,73892.0,-7.71,-36.07,-36.37,0,*50
1485443108.16,23705,9.75,73892.8,-7.69,-35.95,-36.31,0,*56
1485443109.39,23706,9.75,73892.8,-7.71,-36.07,-36.37,0,*52
1485443110.61,23707,9.75,73890.8,-7.71,-36.01,-36.37,0,*55
1485443111.84,23708,9.75,73894.8,-7.71,-36.01,-36.37,0,*5A
1485443113.1,23709,9.75,73888.5,-7.69,-35.95,-36.31,0,*5A
1485443114.33,23710,9.75,73890.5,-7.71,-36.01,-36.37,0,*53
1485443115.59,23711,9.75,73892.3,-7.69,-36.01,-36.13,0,*5D
1485443116.83,23712,9.75,73888.8,-7.71,-36.01,-36.25,0,*52
1485443118.06,23713,9.75,73892.8,-7.69,-36.01,-36.31,0,*5F
1485443119.32,23714,9.75,73898.5,-7.69,-35.95,-36.31,0,*56
1485443120.58,23715,9.75,73894.5,-7.69,-35.95,-36.19,0,*5D
1485443121.81,23716,9.75,73894.8,-7.71,-36.01,-36.37,0,*55
1485443123.04,23717,9.75,73898.0,-7.71,-36.07,-36.37,0,*52
1485443124.3,23718,9.75,73894.8,-7.69,-35.95,-36.31,0,*5A
1485443125.57,23719,9.75,73892.0,-7.71,-35.95,-36.25,0,*57
1485443126.8,23720,9.75,73894.5,-7.71,-36.07,-36.37,0,*56
1485443128.03,23721,9.75,73896.3,-7.69,-36.01,-36.31,0,*5E
1485443129.26,23722,9.75,73896.3,-7.69,-36.01,-36.31,0,*5D
1485443130.53,23723,9.75,73896.5,-7.69,-35.95,-36.31,0,*52
1485443131.76,23724,9.75,73894.8,-7.69,-36.01,-36.31,0,*5B
1485443133.02,23725,9.75,73894.5,-7.71,-35.95,-36.25,0,*58
1485443134.31,23726,9.75,73892.5,-7.69,-35.83,-36.13,0,*50
1485443135.54,23727,9.75,73896.0,-7.69,-36.01,-36.31,0,*58
1485443136.8,23728,9.75,73898.0,-7.69,-35.95,-36.19,0,*53
1485443138.03,23729,9.75,73896.8,-7.69,-36.01,-36.19,0,*5C
1485443139.3,23730,9.75,73894.8,-7.69,-35.83,-36.01,0,*54
1485443140.56,23731,9.75,73892.8,-7.69,-35.95,-36.31,0,*51
1485443141.79,23732,9.75,73896.0,-7.71,-35.95,-36.19,0,*51
1485443143.08,23733,9.75,73898.8,-7.69,-35.83,-36.13,0,*54
1485443144.34,23734,9.75,73896.8,-7.67,-35.95,-36.13,0,*5A
1485443145.58,23735,9.75,73894.5,-7.67,-35.95,-36.19,0,*51
1485443146.79,23736,9.75,73896.0,-7.67,-36.01,-36.31,0,*56
1485443148.02,23737,9.75,73894.5,-7.67,-35.83,-36.19,0,*54
1485443149.23,23738,9.75,73892.3,-7.67,-36.01,-36.19,0,*52
1485443150.47,23739,9.75,73898.0,-7.67,-35.77,-36.13,0,*5B
1485443151.73,23740,9.75,73898.0,-7.67,-35.95,-36.13,0,*59
1485443152.94,23741,9.75,73894.5,-7.67,-36.01,-36.31,0,*56
1485443154.18,23742,9.75,73892.0,-7.67,-35.95,-36.19,0,*51
1485443155.41,23743,9.75,73894.5,-7.67,-35.95,-36.19,0,*50
1485443156.65,23744,9.75,73892.0,-7.67,-35.95,-36.19,0,*57
1485443157.86,23745,9.75,73892.3,-7.67,-36.01,-36.19,0,*58
1485443159.14,23746,9.75,73894.3,-7.65,-35.95,-36.13,0,*5D
1485443160.35,23747,9.75,73892.0,-7.67,-36.01,-36.31,0,*50
1485443161.56,23748,9.75,73888.8,-7.67,-36.01,-36.31,0,*5F
1485443162.78,23749,9.75,73890.8,-7.67,-36.01,-36.31,0,*5E
1485443163.99,23750,9.75,73888.8,-7.67,-36.01,-36.31,0,*56
1485443165.22,23751,9.75,73894.8,-7.67,-36.13,-36.31,0,*54
1485443166.48,23752,9.75,73894.0,-7.65,-36.07,-36.25,0,*55
1485443167.69,23753,9.75,73894.8,-7.67,-36.01,-36.31,0,*55
1485443168.94,23754,9.75,73894.8,-7.67,-36.13,-36.37,0,*57
1485443170.23,23755,9.75,73892.8,-7.65,-35.95,-36.13,0,*5F
1485443171.44,23756,9.75,73894.5,-7.67,-36.01,-36.31,0,*50
1485443172.67,23757,9.75,73890.8,-7.67,-36.13,-36.31,0,*52
1485443173.93,23758,9.75,73892.5,-7.69,-36.13,-36.31,0,*53
1485443175.16,23759,9.75,73896.0,-7.69,-36.01,-36.31,0,*51
1485443176.4,23760,9.75,73896.8,-7.69,-36.01,-36.31,0,*5B
1485443177.63,23761,9.75,73892.5,-7.69,-36.01,-36.19,0,*50
1485443178.86,23762,9.75,73894.8,-7.67,-36.13,-36.31,0,*54
1485443180.07,23763,9.75,73892.3,-7.67,-36.01,-36.19,0,*5C
1485443181.28,23764,9.75,73892.5,-7.67,-36.01,-36.31,0,*51
1485443182.49,23765,9.75,73896.5,-7.67,-36.01,-36.19,0,*5A
1485443183.72,23766,9.75,73896.5,-7.67,-36.13,-36.19,0,*5A
1485443184.95,23767,9.75,73894.3,-7.67,-36.13,-36.31,0,*51
1485443186.18,23768,9.75,73894.0,-7.67,-36.13,-36.31,0,*5E
1485443187.41,23769,9.75,73896.0,-7.69,-36.19,-36.31,0,*5B
1485443188.65,23770,9.75,73896.5,-7.69,-36.19,-36.31,0,*53
1485443189.88,23771,9.75,73900.0,-7.69,-36.01,-36.19,0,*51
1485443191.13,23772,9.81,73900.0,-7.69,-36.13,-36.31,0,*5B
1485443192.36,23773,9.75,73896.0,-7.67,-36.13,-36.31,0,*54
1485443193.6,23774,9.75,73896.8,-7.69,-36.01,-36.31,0,*5E
1485443194.83,23775,9.75,73896.5,-7.67,-36.13,-36.31,0,*52
1485443196.09,23776,9.75,73900.0,-7.69,-36.13,-36.31,0,*5F
1485443197.34,23777,9.75,73902.3,-7.69,-36.13,-36.31,0,*5E
1485443198.6,23778,9.75,73900.0,-7.69,-36.13,-36.31,0,*51
1485443199.85,23779,9.75,73904.5,-7.69,-36.13,-36.31,0,*50
1485443201.09,23780,9.75,73904.3,-7.67,-35.95,-36.19,0,*5F
1485443202.33,23781,9.75,73902.3,-7.67,-35.95,-36.19,0,*5E
1485443203.53,23782,9.81,73902.3,-7.67,-36.01,-36.19,0,*53
1485443204.74,23783,9.75,73894.3,-7.67,-36.01,-36.19,0,*52
1485443205.95,23784,9.75,73896.0,-7.67,-36.01,-36.31,0,*5F
1485443207.18,23785,9.75,73892.0,-7.67,-36.13,-36.19,0,*57
1485443208.39,23786,9.75,73896.3,-7.71,-36.19,-36.31,0,*53
1485443209.64,23787,9.75,73892.5,-7.69,-36.13,-36.31,0,*51
1485443210.9,23788,9.75,73894.0,-7.69,-36.13,-36.31,0,*5E
1485443212.11,23789,9.75,73894.3,-7.67,-36.01,-36.31,0,*52
1485443213.32,23790,9.75,73892.8,-7.67,-36.01,-36.19,0,*50
1485443214.57,23791,9.75,73892.5,-7.69,-36.13,-36.31,0,*56
1485443215.83,23792,9.75,73894.0,-7.69,-36.13,-36.19,0,*5F
1485443217.06,23793,9.75,73896.3,-7.69,-36.01,-36.19,0,*5D
1485443218.29,23794,9.75,73894.0,-7.69,-36.01,-36.19,0,*5A
1485443219.52,23795,9.75,73892.5,-7.69,-36.01,-36.31,0,*51
1485443220.76,23796,9.75,73894.5,-7.69,-36.19,-36.31,0,*5B
1485443221.99,23797,9.75,73892.3,-7.69,-36.01,-36.31,0,*53
1485443223.19,23798,9.75,73894.3,-7.71,-36.01,-36.19,0,*5F
1485443224.43,23799,9.75,73896.0,-7.69,-36.01,-36.31,0,*5D
1485443225.72,23800,9.75,73896.5,-7.69,-35.95,-36.13,0,*5C
1485443226.97,23801,9.75,73892.5,-7.69,-35.95,-36.19,0,*57
1485443228.21,23802,9.75,73892.3,-7.71,-36.07,-36.25,0,*5A
1485443229.46,23803,9.75,73890.0,-7.69,-36.13,-36.19,0,*58
1485443230.7,23804,9.75,73892.0,-7.71,-36.07,-36.25,0,*5C
1485443231.96,23805,9.75,73894.0,-7.69,-35.95,-36.19,0,*53
1485443233.24,23806,9.75,73892.0,-7.69,-35.95,-36.13,0,*5A
1485443234.48,23807,9.75,73892.3,-7.71,-36.01,-36.25,0,*59
1485443235.69,23808,9.75,73892.5,-7.71,-36.01,-36.31,0,*53
1485443236.97,23809,9.75,73890.3,-7.69,-35.95,-36.13,0,*55
1485443238.23,23810,9.81,73894.8,-7.69,-35.95,-36.19,0,*57
1485443239.44,23811,9.75,73894.8,-7.71,-36.07,-36.19,0,*57
1485443240.67,23812,9.75,73894.5,-7.69,-36.01,-36.19,0,*5B
1485443241.9,23813,9.75,73890.0,-7.69,-36.01,-36.31,0,*50
1485443243.16,23814,9.75,73890.5,-7.69,-35.95,-36.19,0,*53
1485443244.4,23815,9.75,73892.8,-7.69,-36.01,-36.31,0,*56
1485443245.66,23816,9.75,73894.8,-7.69,-35.95,-36.01,0,*58
1485443246.92,23817,9.81,73898.8,-7.69,-35.95,-36.19,0,*50
1485443248.21,23818,9.75,73894.5,-7.69,-35.95,-36.13,0,*55
1485443249.48,23819,9.75,73894.3,-7.69,-35.95,-36.01,0,*57
1485443250.68,23820,9.75,73892.8,-7.71,-35.89,-36.07,0,*5F
1485443251.95,23821,9.75,73894.8,-7.69,-35.95,-36.01,0,*5C
1485443253.22,23822,9.75,73892.0,-7.71,-35.83,-35.95,0,*5F
1485443254.48,23823,9.75,73890.5,-7.69,-35.83,-36.01,0,*59
1485443255.75,23824,9.75,73892.8,-7.69,-35.77,-35.95,0,*5B
1485443257.02,23825,9.81,73894.5,-7.69,-35.83,-36.01,0,*5F
1485443258.28,23826,9.75,73898.5,-7.69,-35.83,-36.01,0,*5C
1485443259.55,23827,9.75,73894.3,-7.69,-35.83,-36.01,0,*5D
1485443260.84,23828,9.75,73892.3,-7.69,-35.83,-35.95,0,*5C
1485443262.09,23829,9.75,73892.3,-7.69,-35.77,-36.01,0,*58
1485443263.33,23830,9.75,73892.5,-7.69,-35.77,-36.01,0,*50
1485443264.61,23831,9.75,73896.3,-7.69,-35.83,-36.13,0,*59
1485443265.85,23832,9.75,73894.5,-7.69,-36.01,-36.01,0,*50
1485443267.08,23833,9.75,73894.0,-7.69,-36.01,-36.19,0,*58
1485443268.35,23834,9.75,73892.0,-7.69,-35.95,-36.01,0,*58
1485443269.62,23835,9.75,73894.3,-7.69,-35.95,-36.01,0,*59
1485443270.9,23836,9.75,73894.0,-7.69,-35.83,-36.13,0,*5E
1485443272.16,23837,9.75,73892.3,-7.69,-35.95,-36.19,0,*52
1485443273.43,23838,9.75,73894.0,-7.69,-35.95,-36.01,0,*54
1485443274.7,23839,9.75,73894.0,-7.69,-35.95,-36.01,0,*55
1485443275.94,23840,9.75,73892.0,-7.69,-36.01,-36.01,0,*55
1485443277.22,23841,9.75,73892.5,-7.69,-35.95,-36.13,0,*59
1485443278.49,23842,9.75,73894.5,-7.69,-35.95,-36.01,0,*59
1485443279.76,23843,9.75,73896.3,-7.69,-35.95,-36.01,0,*58
1485443281.03,23844,9.75,73898.8,-7.69,-35.95,-36.01,0,*5F
1485443282.31,23845,9.75,73894.3,-7.69,-35.83,-36.13,0,*5A
1485443283.58,23846,9.75,73896.8,-7.69,-35.95,-36.01,0,*5D
1485443284.84,23847,9.75,73896.5,-7.69,-36.01,-36.13,0,*51
1485443286.08,23848,9.75,73896.8,-7.69,-35.77,-36.01,0,*5F
1485443287.34,23849,9.75,73896.8,-7.67,-35.83,-36.13,0,*58
1485443288.58,23850,9.75,73896.0,-7.67,-35.83,-36.01,0,*53
1485443289.85,23851,9.75,73898.3,-7.67,-35.95,-36.13,0,*56
1485443291.07,23852,9.75,73898.5,-7.67,-35.77,-35.77,0,*58
1485443292.33,23853,9.75,73900.5,-7.65,-35.77,-35.95,0,*57
1485443293.59,23854,9.75,73898.5,-7.67,-35.83,-36.13,0,*54
1485443294.81,23855,9.75,73902.0,-7.67,-35.77,-36.01,0,*5D
1485443296.07,23856,9.75,73898.5,-7.67,-35.83,-36.13,0,*56
1485443297.34,23857,9.75,73900.0,-7.67,-35.83,-36.13,0,*57
1485443298.6,23858,9.75,73900.0,-7.67,-35.83,-36.13,0,*58
1485443299.85,23859,9.81,73904.0,-7.69,-36.01,-36.13,0,*5E
1485443301.11,23860,9.75,73896.3,-7.69,-36.01,-36.13,0,*54
1485443302.4,23861,9.75,73898.3,-7.69,-35.95,-36.13,0,*5B
1485443303.65,23862,9.75,73898.5,-7.69,-36.01,-36.13,0,*56
1485443304.89,23863,9.75,73896.3,-7.69,-36.01,-36.19,0,*5D
1485443306.12,23864,9.75,73896.5,-7.69,-36.01,-36.19,0,*5A